Αρχική σελίδα
METAR-TAF:

METAR-TAF

Αεροδρόμια :

Hebron Municipal Airport

Hebron, Νεμπράσκα, Ηνωμένες Πολιτείες Αμερικής

γεωγραφικό πλάτος: 40-09-08N, γεωγραφικό μήκος: 097-35-13W, υψόμετρο: 447 μ

Παρών καιρός

Η αναφορά έγινε 20 λεπτά πριν, στις 07:15 UTC
Ήπιος άνεμος
Θερμοκρασία 5°C
Υγρασία 65%
Πίεση 1025 hPa
Ορατότητα: 16.1 χλμ
Νεφοσκεπής σε ύψος 6000 πόδια

METAR: KHJH 190715Z AUTO 00000KT 10SM OVC060 05/M01 A3027 RMK AO2 T00501011

Χρόνος: 02:35 (07:35 UTC)


TAF: λείπει

Μετεωρολογικές αναφορές και προγνώσεις για περισσότερα από 4000 αεροδρόμια (δελτία METAR και TAF).

Οι διαθέσιμοι σταθμοί απεικονίζονται στο χάρτη με κίτρινες και κόκκινες κουκκίδες.

Μετακινήστε το ποντίκι πάνω από τις κουκκίδες για να δείτε το όνομα του σταθμού.

Στη συνέχεια, κάντε κλικ για να δείτε τις μετεωρολογικές αναφορές και τις προγνώσεις καιρού.

Για να αλλάξετε το χάρτη: κάντε κλικ στα πράσινα κουμπιά με τον μαύρο σταυρό για να ζουμάρετε, στο πράσινο κουμπί με την παύλα για να αφαιρέσετε το ζουμ ή στα πράσινα βέλη για να αντιπαραβάλλετε χάρτες.


METAR-TAF: